Location: Sundre
(51.7972°N, 114.6405°W)
Time: 04:20:15
(UTC-07:00)

TIGRISAT - Pass Details

Date: 02 February 2020
Orbit: 605 x 689 km, 97.7° (Epoch: 25 February)

Event Time Altitude Azimuth Distance (km) Brightness Sun altitude
Rises 06:23:42 0° 106° (ESE) 2,879 ? -17.5°
Reaches altitude 10° 06:27:16 10° 74° (ENE) 1,968 ? -17.0°
Maximum altitude 06:28:45 12° 54° (NE) 1,856 ? -16.8°
Drops below altitude 10° 06:30:15 10° 33° (NNE) 1,966 ? -16.5°
Sets 06:33:48 0° 1° (N) 2,874 ? -16.0°
